User: anonymous   Login
Location: Unspecified
(0.0000°N, 0.0000°E)
Time: 20:28:04
(UTC+00:00)
Language:

Milstar DFS 2 - Orbit

View from above orbital plane
View from above orbital plane
View from above satellite
View from above satellite

Ground track
Ground track

The orbit data is extracted from the following two-line orbital elements,

1 23712U 95060A   21136.32109547 -.00000012  00000-0  00000-0 0  9993
2 23712  13.3647  17.2928 0001839  42.0452 170.4956  1.00272455 14247
Epoch (UTC): 16 May 2021 07:42:22
Eccentricity: 0.0001839
inclination: 13.3647°
perigee height: 35778 km
apogee height: 35794 km
right ascension of ascending node: 17.2928°
argument of perigee: 42.0452°
revolutions per day: 1.00272455
mean anomaly at epoch: 170.4956°
orbit number at epoch: 1424

The dashed part of the orbit path shows where the satellite is in the earth's shadow,  

DLR